NORTHEAST SUFFOLK  -  Rip Current Statement Rip Current Statement        NORTHERN NASSAU  -  Rip Current Statement Rip Current Statement        NORTHERN QUEENS  -  Rip Current Statement Rip Current Statement        NORTHWEST SUFFOLK  -  Rip Current Statement Rip Current Statement        SOUTHEAST SUFFOLK  -  Rip Current Statement Rip Current Statement        SOUTHERN NASSAU  -  Rip Current Statement Rip Current Statement        SOUTHERN QUEENS  -  Rip Current Statement Rip Current Statement        SOUTHWEST SUFFOLK  -  Rip Current Statement Rip Current Statement      

Active alerts

Northern Queens
  Details for Northern Queens Rip Current Statement
Southern Queens
  Details for Southern Queens Rip Current Statement
Northern Nassau
  Details for Northern Nassau Rip Current Statement
Southern Nassau
  Details for Southern Nassau Rip Current Statement
Northwest Suffolk
  Details for Northwest Suffolk Rip Current Statement
Southwest Suffolk
  Details for Southwest Suffolk Rip Current Statement
Northeast Suffolk
  Details for Northeast Suffolk Rip Current Statement
Southeast Suffolk
  Details for Southeast Suffolk Rip Current Statement


WXM80 ListenWXM80 Stop

You find our weather info also at:

UK Metoffice

WeatherCloud

Weather Underground

Northeastern Weather Network

AWEKAS

Citizen Weather Observer Program (CWOP)

HAMweather, WeatherForYou, PWS Weather


Weather Underground History page Text

Daily Summary for March 13, 2017 Units:  Metric    English   Both
« Previous Day
Next Day »
Daily Weekly Monthly Yearly Custom
  High: Low: Average:
Temperature: 1.6 °C -6.7 °C -2.7 °C
Dew Point: -5 °C -14.1 °C -10.4 °C
Humidity: 74 % 41 % 56 %
Wind Speed: 12.6 km/h 0 km/h 4.7 km/h
Wind Gust: 31.5 km/h - -
Wind:- - SW
Pressure: 1032.7 hPa 1024.6 hPa -
Precipitation: 0 mm    
Historical Graphs
 
 
Tabular Data for March 13, 2017
Time Temperature Dew Point Pressure Wind Wind Speed Wind Gust Humidity Rainfall Rate (Hourly)
00:00 -4.8 °C -13.7 °C 1029 hPa NNW 8.5 km/h 22.2 km/h 50 % 0 mm
00:05 -4.9 °C -13.5 °C 1029 hPa NW 10.9 km/h 18.5 km/h 51 % 0 mm
00:10 -4.9 °C -13.6 °C 1029 hPa NW 8.7 km/h 31.5 km/h 51 % 0 mm
00:15 -4.9 °C -13.6 °C 1029 hPa NW 11.4 km/h 18.5 km/h 51 % 0 mm
00:20 -5 °C -13.8 °C 1029 hPa WNW 12.1 km/h 18.5 km/h 50 % 0 mm
00:25 -5.1 °C -14.1 °C 1028.7 hPa NW 10.5 km/h 20.4 km/h 49 % 0 mm
00:30 -5.1 °C -13.7 °C 1029 hPa West 9 km/h 20.4 km/h 51 % 0 mm
00:35 -5.2 °C -14 °C 1029 hPa NNW 8.4 km/h 14.8 km/h 50 % 0 mm
00:40 -5.2 °C -13.8 °C 1029 hPa WNW 8.5 km/h 14.8 km/h 51 % 0 mm
00:45 -5.3 °C -13.8 °C 1029 hPa NW 5.3 km/h 9.3 km/h 51 % 0 mm
00:50 -5.3 °C -13.8 °C 1029 hPa WNW 10.3 km/h 18.5 km/h 51 % 0 mm
00:55 -5.3 °C -13.6 °C 1029 hPa NW 9.8 km/h 18.5 km/h 52 % 0 mm
01:00 -5.3 °C -13.6 °C 1029 hPa WNW 11.3 km/h 18.5 km/h 52 % 0 mm
01:05 -5.3 °C -13.6 °C 1029 hPa North 11.3 km/h 18.5 km/h 52 % 0 mm
01:10 -5.3 °C -13.7 °C 1029.3 hPa WNW 6.1 km/h 13 km/h 52 % 0 mm
01:15 -5.3 °C -13.4 °C 1029.3 hPa NW 9.5 km/h 18.5 km/h 53 % 0 mm
01:20 -5.4 °C -13.7 °C 1029.3 hPa NW 2.7 km/h 9.3 km/h 52 % 0 mm
01:25 -5.4 °C -13.8 °C 1029.7 hPa NNW 8.9 km/h 14.8 km/h 52 % 0 mm
01:30 -5.4 °C -13.8 °C 1029.7 hPa NNW 10.1 km/h 18.5 km/h 52 % 0 mm
01:35 -5.4 °C -14 °C 1029.7 hPa NNW 6.8 km/h 14.8 km/h 51 % 0 mm
01:40 -5.4 °C -13.6 °C 1029.7 hPa NW 4 km/h 11.1 km/h 53 % 0 mm
01:45 -5.4 °C -13.3 °C 1029.7 hPa NW 8.9 km/h 14.5 km/h 54 % 0 mm
01:50 -5.4 °C -13.6 °C 1029.7 hPa NNW 6.8 km/h 11.1 km/h 53 % 0 mm
01:55 -5.5 °C -13.6 °C 1029.7 hPa North 7.7 km/h 18.5 km/h 53 % 0 mm
02:00 -5.5 °C -13.6 °C 1029.7 hPa WNW 7.4 km/h 18.5 km/h 53 % 0 mm
02:05 -5.5 °C -13.6 °C 1029.7 hPa NW 3.1 km/h 5.6 km/h 53 % 0 mm
02:10 -5.6 °C -13.6 °C 1029.7 hPa WNW 2.3 km/h 14.8 km/h 53 % 0 mm
02:15 -5.6 °C -13.6 °C 1029.7 hPa WNW 4.7 km/h 8 km/h 53 % 0 mm
02:20 -5.6 °C -13.6 °C 1030 hPa NW 12.6 km/h 18.5 km/h 53 % 0 mm
02:25 -5.6 °C -13.7 °C 1029.7 hPa North 3.9 km/h 9.3 km/h 53 % 0 mm
02:31 -5.6 °C -13.7 °C 1030 hPa North 6.3 km/h 13 km/h 53 % 0 mm
02:36 -5.6 °C -13.6 °C 1029.7 hPa NW 9.8 km/h 14.8 km/h 53 % 0 mm
02:41 -5.6 °C -13.4 °C 1029.7 hPa NNW 4.5 km/h 13 km/h 54 % 0 mm
02:46 -5.6 °C -13.4 °C 1029.7 hPa NNW 2.6 km/h 9.3 km/h 54 % 0 mm
02:51 -5.7 °C -13.7 °C 1029.7 hPa NW 3.7 km/h 13 km/h 53 % 0 mm
02:56 -5.7 °C -13.5 °C 1029.7 hPa WNW 3.9 km/h 9.7 km/h 54 % 0 mm
03:01 -5.7 °C -13.7 °C 1029.7 hPa North 7.1 km/h 11.1 km/h 53 % 0 mm
03:06 -5.7 °C -13.7 °C 1029.7 hPa NW 8 km/h 9.3 km/h 53 % 0 mm
03:11 -5.7 °C -13.8 °C 1029.7 hPa NNW 5 km/h 8 km/h 53 % 0 mm
03:16 -5.7 °C -13.8 °C 1029.7 hPa WNW 6.6 km/h 11.1 km/h 53 % 0 mm
03:21 -5.7 °C -13.3 °C 1029.7 hPa NNW 6.3 km/h 9.3 km/h 55 % 0 mm
03:26 -5.7 °C -13.3 °C 1029.7 hPa North 3.9 km/h 9.3 km/h 55 % 0 mm
03:31 -5.8 °C -13.4 °C 1029.7 hPa North 7.2 km/h 13 km/h 55 % 0 mm
03:36 -5.8 °C -13.6 °C 1029.7 hPa North 8.2 km/h 13 km/h 54 % 0 mm
03:41 -5.8 °C -13.7 °C 1029.7 hPa NE 6.1 km/h 9.7 km/h 54 % 0 mm
03:46 -5.8 °C -13.7 °C 1029.3 hPa NNW 8 km/h 13 km/h 54 % 0 mm
03:51 -5.8 °C -13.7 °C 1029.3 hPa North 3.2 km/h 7.4 km/h 54 % 0 mm
03:56 -5.8 °C -13.7 °C 1029.3 hPa NNW 5.1 km/h 8 km/h 54 % 0 mm
04:01 -5.9 °C -13.5 °C 1029.3 hPa North 5.3 km/h 11.1 km/h 55 % 0 mm
04:06 -5.9 °C -13.3 °C 1029.3 hPa North 2.1 km/h 5.6 km/h 56 % 0 mm
04:11 -5.9 °C -13.3 °C 1029.7 hPa North 2.1 km/h 8 km/h 56 % 0 mm
04:16 -6 °C -13.6 °C 1029.7 hPa NNW 6.4 km/h 9.3 km/h 55 % 0 mm
04:21 -6 °C -13.6 °C 1029.7 hPa NNW 1.9 km/h 5.6 km/h 55 % 0 mm
04:26 -6 °C -13.6 °C 1029.7 hPa North 5 km/h 9.3 km/h 55 % 0 mm
04:31 -6.1 °C -13.4 °C 1029.7 hPa NNW 6.9 km/h 14.5 km/h 56 % 0 mm
04:36 -6.1 °C -13.4 °C 1030 hPa North 8.9 km/h 13 km/h 56 % 0 mm
04:41 -6.1 °C -13.5 °C 1030 hPa North 2.4 km/h 5.6 km/h 56 % 0 mm
04:46 -6.1 °C -13.3 °C 1030 hPa NNE 5.8 km/h 9.7 km/h 57 % 0 mm
04:51 -6.2 °C -13.3 °C 1030 hPa NW 5.8 km/h 9.7 km/h 57 % 0 mm
04:56 -6.2 °C -13.4 °C 1030 hPa North 4.7 km/h 8 km/h 57 % 0 mm
05:01 -6.2 °C -13.4 °C 1030 hPa NNE 8.5 km/h 14.5 km/h 57 % 0 mm
05:06 -6.3 °C -13.4 °C 1030 hPa NNW 5.3 km/h 7.4 km/h 57 % 0 mm
05:11 -6.3 °C -13.2 °C 1030 hPa North 7.9 km/h 11.1 km/h 58 % 0 mm
05:16 -6.3 °C -13.2 °C 1030.4 hPa NNE 6.1 km/h 9.3 km/h 58 % 0 mm
05:21 -6.3 °C -13.1 °C 1030.4 hPa North 4.3 km/h 5.6 km/h 59 % 0 mm
05:26 -6.3 °C -13.1 °C 1030.4 hPa NW 3.5 km/h 9.3 km/h 59 % 0 mm
05:31 -6.3 °C -12.8 °C 1030.4 hPa NW 5.8 km/h 11.1 km/h 60 % 0 mm
05:36 -6.4 °C -13.1 °C 1030.4 hPa WNW 5 km/h 11.3 km/h 59 % 0 mm
05:41 -6.4 °C -13.2 °C 1030.4 hPa North 6.1 km/h 16.1 km/h 59 % 0 mm
05:46 -6.5 °C -13.2 °C 1030.4 hPa North 9.2 km/h 11.1 km/h 59 % 0 mm
05:51 -6.5 °C -13 °C 1030.4 hPa North 6.4 km/h 9.7 km/h 60 % 0 mm
05:56 -6.5 °C -13 °C 1030.4 hPa NNW 4.5 km/h 6.4 km/h 60 % 0 mm
06:01 -6.6 °C -12.8 °C 1030.4 hPa NNW 5.3 km/h 11.1 km/h 61 % 0 mm
06:06 -6.6 °C -12.8 °C 1030.4 hPa NNW 4 km/h 11.1 km/h 61 % 0 mm
06:12 -6.6 °C -12.8 °C 1030.7 hPa NW 5.3 km/h 7.4 km/h 61 % 0 mm
06:17 -6.6 °C -12.7 °C 1030.7 hPa NW 0.8 km/h 7.4 km/h 62 % 0 mm
06:22 -6.6 °C -12.7 °C 1030.7 hPa NE 5.8 km/h 9.3 km/h 62 % 0 mm
06:27 -6.6 °C -12.7 °C 1030.7 hPa North 5.8 km/h 8 km/h 62 % 0 mm
06:32 -6.7 °C -12.6 °C 1031 hPa North 5.8 km/h 9.7 km/h 63 % 0 mm
06:37 -6.7 °C -12.6 °C 1031.4 hPa NW 3.1 km/h 9.3 km/h 63 % 0 mm
06:42 -6.6 °C -12.5 °C 1031.4 hPa North 0.6 km/h 11.1 km/h 63 % 0 mm
06:47 -6.6 °C -12.5 °C 1031 hPa North 3.9 km/h 6.4 km/h 63 % 0 mm
06:52 -6.6 °C -12.3 °C 1031.4 hPa NW 3.9 km/h 9.3 km/h 64 % 0 mm
06:57 -6.7 °C -12.2 °C 1031.4 hPa NNW 4.2 km/h 9.3 km/h 65 % 0 mm
07:02 -6.7 °C -12.2 °C 1031.7 hPa NNW 3.5 km/h 5.6 km/h 65 % 0 mm
07:07 -6.7 °C -12.2 °C 1031.4 hPa NNW 4.5 km/h 9.3 km/h 65 % 0 mm
07:12 -6.7 °C -12.2 °C 1031.7 hPa North 3.7 km/h 5.6 km/h 65 % 0 mm
07:17 -6.7 °C -12.2 °C 1031.7 hPa NNW 3.7 km/h 5.6 km/h 65 % 0 mm
07:22 -6.7 °C -12.2 °C 1031.7 hPa North 4.8 km/h 8 km/h 65 % 0 mm
07:27 -6.7 °C -12.2 °C 1031.4 hPa North 1.4 km/h 3.7 km/h 65 % 0 mm
07:32 -6.7 °C -12.2 °C 1031.4 hPa NNE 2.9 km/h 5.6 km/h 65 % 0 mm
07:37 -6.6 °C -12.3 °C 1031.4 hPa North 4.7 km/h 5.6 km/h 64 % 0 mm
07:42 -6.6 °C -12.2 °C 1031.4 hPa North 4.2 km/h 5.6 km/h 64 % 0 mm
07:47 -6.4 °C -12.1 °C 1031.4 hPa North 1.1 km/h 3.7 km/h 64 % 0 mm
07:53 -6.3 °C -12 °C 1031.4 hPa NNW 6.9 km/h 7.4 km/h 64 % 0 mm
07:58 -6.1 °C -11.9 °C 1031.4 hPa North 2.4 km/h 5.6 km/h 63 % 0 mm
08:03 -5.8 °C -11.9 °C 1031.7 hPa North 5.8 km/h 9.3 km/h 62 % 0 mm
08:08 -5.7 °C -12.1 °C 1031.7 hPa North 2.9 km/h 4.8 km/h 61 % 0 mm
08:13 -5.5 °C -12.1 °C 1032.1 hPa NNE 7.4 km/h 11.3 km/h 60 % 0 mm
08:18 -5.4 °C -11.9 °C 1032.1 hPa NW 4.3 km/h 9.3 km/h 60 % 0 mm
08:23 -5.2 °C -11.6 °C 1032.1 hPa North 1.6 km/h 11.3 km/h 61 % 0 mm
08:28 -5 °C -11.8 °C 1032.4 hPa NNW 1.6 km/h 8 km/h 59 % 0 mm
08:33 -4.8 °C -11.8 °C 1032.4 hPa North 4.7 km/h 6.4 km/h 58 % 0 mm
08:38 -4.7 °C -11.9 °C 1032.4 hPa North 4.5 km/h 9.3 km/h 57 % 0 mm
08:43 -4.6 °C -11.6 °C 1032.4 hPa NNE 5.1 km/h 5.6 km/h 58 % 0 mm
08:48 -4.3 °C -11.2 °C 1032.4 hPa NNW 1.4 km/h 7.4 km/h 59 % 0 mm
08:53 -4.2 °C -11.4 °C 1032.4 hPa NNW 3.2 km/h 9.7 km/h 57 % 0 mm
08:58 -4 °C -11.1 °C 1032.1 hPa NNW 2.9 km/h 7.4 km/h 58 % 0 mm
09:03 -3.9 °C -11.2 °C 1032.1 hPa North 5 km/h 9.3 km/h 57 % 0 mm
09:08 -3.8 °C -11.6 °C 1032.1 hPa NNW 8.2 km/h 14.8 km/h 55 % 0 mm
09:13 -3.8 °C -11.3 °C 1032.1 hPa NNW 1.1 km/h 5.6 km/h 56 % 0 mm
09:18 -3.7 °C -11.4 °C 1032.4 hPa West 5 km/h 9.3 km/h 55 % 0 mm
09:23 -3.7 °C -11.7 °C 1032.4 hPa NW 4.7 km/h 7.4 km/h 54 % 0 mm
09:28 -3.6 °C -11.6 °C 1032.4 hPa NW 4.8 km/h 7.4 km/h 54 % 0 mm
09:33 -3.6 °C -11.6 °C 1032.4 hPa WNW 6 km/h 11.1 km/h 54 % 0 mm
09:38 -3.6 °C -11.6 °C 1032.4 hPa NNW 4.5 km/h 7.4 km/h 54 % 0 mm
09:44 -3.4 °C -11.4 °C 1032.4 hPa NW 6.9 km/h 11.1 km/h 54 % 0 mm
09:49 -3.4 °C -11.4 °C 1032.4 hPa NNW 3.1 km/h 7.4 km/h 54 % 0 mm
09:54 -3.3 °C -11.3 °C 1032.4 hPa NW 4.2 km/h 5.6 km/h 54 % 0 mm
09:59 -3.3 °C -11.6 °C 1032.4 hPa NW 5.5 km/h 7.4 km/h 53 % 0 mm
10:04 -3.4 °C -11.7 °C 1032.4 hPa NNW 2.9 km/h 5.6 km/h 53 % 0 mm
10:09 -3.5 °C -11.5 °C 1032.4 hPa NNW 6.3 km/h 6.4 km/h 54 % 0 mm
10:14 -3.4 °C -11 °C 1032.7 hPa WNW 1.9 km/h 9.3 km/h 56 % 0 mm
10:19 -3.3 °C -10.8 °C 1032.7 hPa WNW 3.4 km/h 5.6 km/h 56 % 0 mm
10:24 -3.2 °C -11.2 °C 1032.7 hPa West 5.6 km/h 9.3 km/h 54 % 0 mm
10:29 -2.9 °C -10.5 °C 1032.7 hPa NNW 2.4 km/h 7.4 km/h 56 % 0 mm
10:34 -2.6 °C -10.7 °C 1032.7 hPa WNW 5.1 km/h 11.1 km/h 54 % 0 mm
10:39 -2.4 °C -10.7 °C 1032.4 hPa WNW 3.5 km/h 14.8 km/h 53 % 0 mm
10:44 -2.3 °C -10.3 °C 1032.4 hPa NNW 3.7 km/h 6.4 km/h 54 % 0 mm
10:49 -2.2 °C -10.7 °C 1032.4 hPa NNW 4.8 km/h 7.4 km/h 52 % 0 mm
10:54 -2.1 °C -10.4 °C 1032.1 hPa NW 1.8 km/h 5.6 km/h 53 % 0 mm
10:59 -1.8 °C -10.2 °C 1032.1 hPa North 7.6 km/h 11.1 km/h 53 % 0 mm
11:04 -1.8 °C -10.3 °C 1032.1 hPa NNW 4.7 km/h 9.3 km/h 52 % 0 mm
11:09 -1.8 °C -10.7 °C 1032.1 hPa NNW 4.7 km/h 9.3 km/h 51 % 0 mm
11:14 -1.8 °C -10.3 °C 1032.4 hPa NNW 4.2 km/h 11.1 km/h 52 % 0 mm
11:19 -1.7 °C -10.5 °C 1032.4 hPa NW 5.6 km/h 11.1 km/h 51 % 0 mm
11:24 -1.5 °C -9.8 °C 1032.4 hPa NW 3.9 km/h 9.7 km/h 53 % 0 mm
11:29 -1.2 °C -9.8 °C 1032.1 hPa NW 6 km/h 9.3 km/h 52 % 0 mm
11:34 -1 °C -10.1 °C 1031.7 hPa WSW 4 km/h 9.3 km/h 50 % 0 mm
11:39 -0.6 °C -9.5 °C 1031.7 hPa WNW 6.3 km/h 11.3 km/h 51 % 0 mm
11:44 -0.5 °C -9.7 °C 1032.1 hPa NNW 6.6 km/h 13 km/h 50 % 0 mm
11:49 -0.2 °C -9.3 °C 1032.1 hPa WNW 4.5 km/h 8 km/h 50 % 0 mm
11:54 0 °C -9.7 °C 1032.1 hPa NNW 4.7 km/h 7.4 km/h 48 % 0 mm
11:59 -0.1 °C -9.5 °C 1031.7 hPa NE 1.4 km/h 5.6 km/h 49 % 0 mm
12:04 0.2 °C -9.3 °C 1032.1 hPa NW 3.1 km/h 5.6 km/h 49 % 0 mm
12:09 0.3 °C -9.9 °C 1031.7 hPa WNW 2.3 km/h 5.6 km/h 46 % 0 mm
12:14 0.4 °C -10.4 °C 1031.7 hPa NNE 6 km/h 8 km/h 44 % 0 mm
12:19 0.3 °C -9.7 °C 1031.7 hPa NNW 4 km/h 7.4 km/h 47 % 0 mm
12:24 0.3 °C -10.6 °C 1031.7 hPa NW 6.1 km/h 7.4 km/h 44 % 0 mm
12:29 0 °C -11.4 °C 1031.4 hPa WNW 3.5 km/h 8 km/h 42 % 0 mm
12:34 -0.1 °C -11.2 °C 1031.4 hPa NW 1 km/h 4.8 km/h 43 % 0 mm
12:39 -0.1 °C -10.6 °C 1031.4 hPa NNW 3.5 km/h 5.6 km/h 45 % 0 mm
12:44 0.1 °C -10.2 °C 1031 hPa WSW 2.1 km/h 5.6 km/h 46 % 0 mm
12:50 0.4 °C -10.4 °C 1031 hPa SW 5.3 km/h 13 km/h 44 % 0 mm
12:55 0.5 °C -10.4 °C 1031 hPa WNW 2.4 km/h 5.6 km/h 44 % 0 mm
13:00 0.5 °C -10.7 °C 1030.7 hPa SW 1.9 km/h 7.4 km/h 43 % 0 mm
13:05 0.5 °C -10.7 °C 1031 hPa WSW 3.7 km/h 6.4 km/h 43 % 0 mm
13:10 0.5 °C -10.9 °C 1030.7 hPa WSW 5 km/h 11.1 km/h 42 % 0 mm
13:15 0.6 °C -10.6 °C 1030.7 hPa NW 2.1 km/h 7.4 km/h 43 % 0 mm
13:20 0.4 °C -11.3 °C 1030.7 hPa WNW 6 km/h 9.3 km/h 41 % 0 mm
13:25 0.4 °C -10.4 °C 1030.7 hPa WNW 7.2 km/h 9.7 km/h 44 % 0 mm
13:30 0.3 °C -10.8 °C 1030.7 hPa West 5.8 km/h 9.3 km/h 43 % 0 mm
13:35 0.4 °C -11.3 °C 1030.4 hPa West 8.7 km/h 13 km/h 41 % 0 mm
13:40 0.4 °C -10.4 °C 1030.4 hPa West 5 km/h 11.3 km/h 44 % 0 mm
13:45 0.5 °C -10.9 °C 1030.4 hPa WSW 7.6 km/h 9.7 km/h 42 % 0 mm
13:50 0.4 °C -11.3 °C 1030.4 hPa West 4.7 km/h 9.3 km/h 41 % 0 mm
13:55 0.5 °C -10.4 °C 1030.4 hPa WNW 7.1 km/h 11.1 km/h 44 % 0 mm
14:00 0.6 °C -10.6 °C 1030.4 hPa NW 3.2 km/h 7.4 km/h 43 % 0 mm
14:05 0.7 °C -10.5 °C 1030.4 hPa NNW 3.7 km/h 7.4 km/h 43 % 0 mm
14:10 0.7 °C -9.6 °C 1030.4 hPa WNW 3.5 km/h 6.4 km/h 46 % 0 mm
14:15 0.8 °C -9.6 °C 1030 hPa NNW 3.5 km/h 5.6 km/h 46 % 0 mm
14:20 1.1 °C -8.7 °C 1030 hPa NW 4.3 km/h 8 km/h 48 % 0 mm
14:25 1.2 °C -9.5 °C 1030 hPa North 5.8 km/h 9.3 km/h 45 % 0 mm
14:30 1.3 °C -8.8 °C 1030 hPa North 8 km/h 16.7 km/h 47 % 0 mm
14:35 1.4 °C -8.9 °C 1029.7 hPa NNE 9 km/h 12.9 km/h 46 % 0 mm
14:40 1.3 °C -9.7 °C 1029.7 hPa NNE 6.1 km/h 11.1 km/h 44 % 0 mm
14:45 1.4 °C -9 °C 1029.3 hPa North 5.6 km/h 9.3 km/h 46 % 0 mm
14:50 1.6 °C -9.4 °C 1029.3 hPa NNW 9 km/h 13 km/h 44 % 0 mm
14:55 1.4 °C -9.8 °C 1029.3 hPa NNW 7.4 km/h 9.3 km/h 43 % 0 mm
15:00 1.5 °C -9.2 °C 1029.3 hPa North 6.1 km/h 9.7 km/h 45 % 0 mm
15:05 1.5 °C -9.4 °C 1029.3 hPa NNW 6.9 km/h 13 km/h 44 % 0 mm
15:10 1.5 °C -8.9 °C 1029.3 hPa NNW 4.8 km/h 7.4 km/h 46 % 0 mm
15:15 1.5 °C -9.2 °C 1029 hPa North 6 km/h 9.3 km/h 45 % 0 mm
15:20 1.6 °C -9.4 °C 1029 hPa NNW 6.6 km/h 9.7 km/h 44 % 0 mm
15:25 1.4 °C -9.2 °C 1029 hPa NE 6.3 km/h 7.4 km/h 45 % 0 mm
15:30 1.3 °C -9.9 °C 1029 hPa ENE 5.8 km/h 11.1 km/h 43 % 0 mm
15:35 1.2 °C -9.8 °C 1029 hPa NE 3.7 km/h 5.6 km/h 44 % 0 mm
15:40 1 °C -9.6 °C 1029 hPa NE 2.6 km/h 5.6 km/h 45 % 0 mm
15:45 0.9 °C -10.3 °C 1028.7 hPa ENE 4.8 km/h 7.4 km/h 43 % 0 mm
15:50 0.8 °C -10.4 °C 1028.7 hPa NNE 4 km/h 6.4 km/h 43 % 0 mm
15:55 0.8 °C -10.1 °C 1028.7 hPa NE 5.3 km/h 7.4 km/h 44 % 0 mm
16:00 0.7 °C -10.4 °C 1028.7 hPa NE 3.9 km/h 5.6 km/h 43 % 0 mm
16:05 0.7 °C -10.2 °C 1028.7 hPa ENE 5.8 km/h 8 km/h 44 % 0 mm
16:10 0.6 °C -10.3 °C 1028.7 hPa NNE 5 km/h 5.6 km/h 44 % 0 mm
16:15 0.6 °C -10.3 °C 1028.7 hPa NE 3.7 km/h 7.4 km/h 44 % 0 mm
16:20 0.6 °C -10.1 °C 1028.3 hPa ENE 3.9 km/h 7.4 km/h 45 % 0 mm
16:25 0.4 °C -9.8 °C 1028.3 hPa ENE 7.6 km/h 11.1 km/h 46 % 0 mm
16:30 0.3 °C -10.3 °C 1028 hPa ENE 2.6 km/h 5.6 km/h 45 % 0 mm
16:36 0.2 °C -9.8 °C 1028 hPa NE 3.9 km/h 5.6 km/h 47 % 0 mm
16:41 0.1 °C -10.2 °C 1028 hPa NE 4 km/h 9.3 km/h 46 % 0 mm
16:46 0.1 °C -9.9 °C 1028 hPa NNE 4.5 km/h 7.4 km/h 47 % 0 mm
16:51 0.1 °C -9.6 °C 1027.7 hPa ENE 4.3 km/h 11.1 km/h 48 % 0 mm
16:56 -0.1 °C -10.3 °C 1027.7 hPa ENE 4.7 km/h 7.4 km/h 46 % 0 mm
17:01 -0.1 °C -9.8 °C 1027.7 hPa ENE 4.5 km/h 7.4 km/h 48 % 0 mm
17:06 -0.2 °C -9.6 °C 1027.7 hPa ENE 2.9 km/h 5.6 km/h 49 % 0 mm
17:11 -0.2 °C -9.9 °C 1027.7 hPa ENE 3.7 km/h 6.4 km/h 48 % 0 mm
17:16 -0.3 °C -9.7 °C 1027.7 hPa ENE 5.8 km/h 11.1 km/h 49 % 0 mm
17:21 -0.3 °C -9.5 °C 1027.7 hPa ENE 4.8 km/h 8 km/h 50 % 0 mm
17:26 -0.4 °C -9.3 °C 1027.7 hPa ENE 0.5 km/h 3.7 km/h 51 % 0 mm
17:31 -0.3 °C -9 °C 1027.7 hPa ENE 1 km/h 3.7 km/h 52 % 0 mm
17:36 -0.3 °C -8.8 °C 1027.7 hPa NE 3.1 km/h 5.6 km/h 53 % 0 mm
17:41 -0.3 °C -8.7 °C 1027.7 hPa SE 4.8 km/h 9.3 km/h 53 % 0 mm
17:46 -0.2 °C -8.8 °C 1027.7 hPa SE 4 km/h 9.3 km/h 52 % 0 mm
17:51 -0.1 °C -8.8 °C 1027.7 hPa SE 7.1 km/h 14.5 km/h 52 % 0 mm
17:56 -0.1 °C -8.3 °C 1027.7 hPa SE 6.3 km/h 14.8 km/h 54 % 0 mm
18:01 -0.1 °C -8.6 °C 1028 hPa SSE 7.1 km/h 14.8 km/h 53 % 0 mm
18:07 -0.2 °C -8.2 °C 1027.7 hPa ESE 5 km/h 8 km/h 55 % 0 mm
18:12 -0.3 °C -8.2 °C 1027.7 hPa SE 3.5 km/h 9.3 km/h 55 % 0 mm
18:17 -0.4 °C -8.6 °C 1027.7 hPa SSE 2.4 km/h 7.4 km/h 54 % 0 mm
18:22 -0.5 °C -8.7 °C 1027.7 hPa SE 6.4 km/h 11.1 km/h 54 % 0 mm
18:27 -0.6 °C -8.5 °C 1028 hPa SSE 2.3 km/h 5.6 km/h 55 % 0 mm
18:32 -0.6 °C -8.6 °C 1027.7 hPa SSE 8.9 km/h 11.1 km/h 55 % 0 mm
18:37 -0.7 °C -8.4 °C 1028 hPa SE 5.3 km/h 11.1 km/h 56 % 0 mm
18:42 -0.8 °C -8.5 °C 1027.7 hPa SSE 6.9 km/h 13 km/h 56 % 0 mm
18:47 -0.9 °C -8.4 °C 1027.7 hPa SE 3.7 km/h 11.3 km/h 57 % 0 mm
18:52 -1 °C -8.4 °C 1027.7 hPa SSE 4.7 km/h 11.1 km/h 57 % 0 mm
18:57 -1.1 °C -8.6 °C 1027.7 hPa SSE 7.1 km/h 13 km/h 57 % 0 mm
19:02 -1.2 °C -8.2 °C 1027.3 hPa SE 4.2 km/h 9.3 km/h 59 % 0 mm
19:07 -1.3 °C -8.1 °C 1027.3 hPa SE 3.9 km/h 7.4 km/h 60 % 0 mm
19:12 -1.3 °C -8.1 °C 1027.3 hPa SSE 8.2 km/h 12.9 km/h 60 % 0 mm
19:17 -1.4 °C -8.2 °C 1027.3 hPa SSE 5.5 km/h 8 km/h 60 % 0 mm
19:22 -1.6 °C -8.1 °C 1027.3 hPa SSE 5.5 km/h 8 km/h 61 % 0 mm
19:27 -1.6 °C -8.2 °C 1027.3 hPa SE 7.1 km/h 11.3 km/h 61 % 0 mm
19:32 -1.6 °C -7.9 °C 1027.7 hPa SE 6 km/h 7.4 km/h 62 % 0 mm
19:37 -1.7 °C -7.8 °C 1027.7 hPa SSE 4.5 km/h 9.3 km/h 63 % 0 mm
19:42 -1.7 °C -7.8 °C 1027.7 hPa SSE 3.2 km/h 11.1 km/h 63 % 0 mm
19:47 -1.7 °C -7.8 °C 1027.7 hPa SSE 2.4 km/h 5.6 km/h 63 % 0 mm
19:52 -1.7 °C -7.7 °C 1027.3 hPa SSE 7.2 km/h 9.7 km/h 64 % 0 mm
19:58 -1.8 °C -7.7 °C 1027.7 hPa SSE 6.3 km/h 11.1 km/h 64 % 0 mm
20:03 -1.8 °C -7.5 °C 1027.7 hPa SSE 8 km/h 9.3 km/h 65 % 0 mm
20:08 -1.8 °C -7.3 °C 1027.3 hPa SSE 3.2 km/h 9.7 km/h 66 % 0 mm
20:13 -1.8 °C -7.3 °C 1027 hPa SSE 3.2 km/h 11.3 km/h 66 % 0 mm
20:18 -1.8 °C -7.3 °C 1027 hPa SSE 5.8 km/h 7.4 km/h 66 % 0 mm
20:23 -1.8 °C -7.2 °C 1027.3 hPa SSE 3.2 km/h 8 km/h 67 % 0 mm
20:28 -1.8 °C -7.2 °C 1027.3 hPa SSE 1.6 km/h 8 km/h 67 % 0 mm
20:33 -1.9 °C -7.2 °C 1027.3 hPa SSE 3.2 km/h 8 km/h 67 % 0 mm
20:38 -1.9 °C -7 °C 1027.3 hPa ESE 2.4 km/h 5.6 km/h 68 % 0 mm
20:43 -1.8 °C -7 °C 1027.3 hPa SE 1.6 km/h 4.8 km/h 68 % 0 mm
20:48 -1.8 °C -6.8 °C 1027.3 hPa SSE 0.8 km/h 4.8 km/h 69 % 0 mm
20:53 -1.8 °C -6.8 °C 1027 hPa Calm   3.2 km/h 69 % 0 mm
20:58 -1.8 °C -6.8 °C 1027.3 hPa SSE 0.2 km/h 1.9 km/h 69 % 0 mm
21:03 -1.8 °C -6.8 °C 1027.3 hPa Calm   1.9 km/h 69 % 0 mm
21:08 -1.8 °C -6.7 °C 1027.3 hPa SSE 0.3 km/h 3.7 km/h 69 % 0 mm
21:13 -1.8 °C -6.7 °C 1027 hPa Calm   3.2 km/h 69 % 0 mm
21:18 -1.8 °C -6.7 °C 1027.3 hPa Calm     69 % 0 mm
21:23 -1.7 °C -6.7 °C 1027.3 hPa SSE 1.8 km/h 4.8 km/h 69 % 0 mm
21:28 -1.7 °C -6.7 °C 1027.3 hPa SSE 1.8 km/h 3.7 km/h 69 % 0 mm
21:33 -1.7 °C -6.5 °C 1027.3 hPa SSE 2.7 km/h 5.6 km/h 70 % 0 mm
21:38 -1.7 °C -6.4 °C 1027.3 hPa South 0.2 km/h 1.9 km/h 70 % 0 mm
21:43 -1.7 °C -6.4 °C 1027 hPa South 0.3 km/h 1.9 km/h 70 % 0 mm
21:48 -1.6 °C -6.4 °C 1027 hPa Calm   1.9 km/h 70 % 0 mm
21:53 -1.6 °C -6.3 °C 1026.6 hPa ESE 1.6 km/h 5.6 km/h 70 % 0 mm
21:59 -1.6 °C -6.3 °C 1026.6 hPa ESE 2.6 km/h 3.7 km/h 70 % 0 mm
22:04 -1.6 °C -6.1 °C 1026.6 hPa ESE 0.6 km/h 3.2 km/h 71 % 0 mm
22:09 -1.5 °C -6.1 °C 1026.3 hPa ESE 1.8 km/h 3.7 km/h 71 % 0 mm
22:14 -1.5 °C -6.1 °C 1026.3 hPa ESE 2.4 km/h 3.7 km/h 71 % 0 mm
22:19 -1.5 °C -6.1 °C 1026.3 hPa ESE 1.3 km/h 3.7 km/h 71 % 0 mm
22:24 -1.5 °C -6.3 °C 1026.3 hPa ESE 0.2 km/h 1.9 km/h 70 % 0 mm
22:29 -1.4 °C -6 °C 1026.3 hPa Calm   1.9 km/h 71 % 0 mm
22:34 -1.4 °C -6 °C 1026.3 hPa Calm   1.9 km/h 71 % 0 mm
22:39 -1.4 °C -6 °C 1026.6 hPa ESE 0.2 km/h 3.7 km/h 71 % 0 mm
22:44 -1.4 °C -5.9 °C 1026.6 hPa Calm   1.9 km/h 71 % 0 mm
22:49 -1.4 °C -5.9 °C 1026.3 hPa ESE 0.2 km/h 1.9 km/h 71 % 0 mm
22:54 -1.4 °C -5.9 °C 1026.3 hPa ESE 1.6 km/h 3.7 km/h 71 % 0 mm
22:59 -1.3 °C -5.9 °C 1026 hPa ESE 2.9 km/h 5.6 km/h 71 % 0 mm
23:04 -1.3 °C -5.7 °C 1025.6 hPa East 5.6 km/h 7.4 km/h 72 % 0 mm
23:09 -1.3 °C -5.5 °C 1025.6 hPa East 4 km/h 8 km/h 73 % 0 mm
23:14 -1.2 °C -5.4 °C 1025.6 hPa East 2.4 km/h 3.7 km/h 73 % 0 mm
23:19 -1.2 °C -5.4 °C 1025.6 hPa East 2.3 km/h 3.7 km/h 73 % 0 mm
23:24 -1.2 °C -5.4 °C 1024.9 hPa East 5.5 km/h 9.3 km/h 73 % 0 mm
23:29 -1.1 °C -5.3 °C 1024.9 hPa East 5.8 km/h 8 km/h 73 % 0 mm
23:34 -1.1 °C -5.3 °C 1024.9 hPa East 5.6 km/h 9.3 km/h 73 % 0 mm
23:39 -1.1 °C -5.3 °C 1024.9 hPa East 4.7 km/h 7.4 km/h 73 % 0 mm
23:44 -1 °C -5.1 °C 1024.6 hPa East 6.1 km/h 8 km/h 74 % 0 mm
23:49 -0.9 °C -5.2 °C 1024.9 hPa East 5 km/h 8 km/h 73 % 0 mm
23:55 -0.9 °C -5 °C 1024.6 hPa East 6.8 km/h 9.7 km/h 74 % 0 mm
Crab Meadow Weather
Compliments of Weather Underground - 3 mb

Script developed by  Jim McMurry - jmcmurry@mwt.net Adapted for the template by  Wim van der Kuil - Leuven-Template.eu

Weather Terms: Flood Watch - Conditions are favorable for flash flooding in and close to the watch area. These watches are issued by the Weather Forecast Office in Upton and are usually for the first 12 to 24 hours of a forecast.